Location: Les Jeannots
(43.2262°N, 5.5774°E)
Time: 08:37:31
(UTC+00:00)

Cosmos 1825 - Pass Details

Date: 05 July 2020
Orbit: 503 x 508 km, 82.5° (Epoch: 04 August)

Event Time Altitude Azimuth Distance (km) Brightness Sun altitude
Exits shadow 23:32:44 22° 280° (W) 1,152 4.0 -24.1°
Maximum altitude 23:33:01 22° 287° (WNW) 1,146 4.1 -24.1°
Drops below altitude 10° 23:36:02 10° 339° (NNW) 1,734 5.8 -24.1°
Sets 23:38:32 0° 355° (N) 2,626 7.2 -24.1°
